contact:dominique.lefevre@mio.osupytheas.fr, maurice.libes@osupytheas.fr, didier.mallarino@osupytheas.fr
Project:EMSO http://www.emso-fr.org/EMSO-France
Depth: 2436.0 m
Title:EMSO Ligure Ouest : Data MII capteur CSTAR
DateTime,Latitude,Longitude,Instrument_Serial,Reference_Counts,Signal_Counts,Corrected_Signal_raw_counts,Calculated_Beam_c_inverse_meters,Internal_thermistor_counts
DateTime,Latitude,Longitude,Instrument_Serial,Reference_Counts,Signal_Counts,Corrected_Signal_raw_counts,Calculated_Beam_c_inverse_meters,Internal_thermistor_counts
2022-08-04T00:00:40,42.805,6.029,CST-1368DR,4630,5027,11562,01.202,551
2022-08-04T00:03:41,42.805,6.029,CST-1368DR,4630,5024,11556,01.204,551
2022-08-04T00:06:43,42.805,6.029,CST-1368DR,4630,5027,11564,01.202,551
2022-08-04T00:09:44,42.805,6.029,CST-1368DR,4630,5024,11557,01.204,551
2022-08-04T00:12:46,42.805,6.029,CST-1368DR,4630,5047,11608,01.186,551
2022-08-04T00:15:48,42.805,6.029,CST-1368DR,4630,5027,11564,01.202,551
2022-08-04T00:18:49,42.805,6.029,CST-1368DR,4630,5021,11549,01.207,551
2022-08-04T00:21:51,42.805,6.029,CST-1368DR,4630,5024,11556,01.204,551
2022-08-04T00:24:52,42.805,6.029,CST-1368DR,4630,5027,11562,01.202,551
2022-08-04T00:27:54,42.805,6.029,CST-1368DR,4630,5020,11546,01.208,551
2022-08-04T00:30:55,42.805,6.029,CST-1368DR,4630,5027,11564,01.202,551
2022-08-04T00:33:57,42.805,6.029,CST-1368DR,4630,5023,11555,01.205,551
2022-08-04T00:36:59,42.805,6.029,CST-1368DR,4630,5025,11558,01.204,551
2022-08-04T00:40:00,42.805,6.029,CST-1368DR,4630,5026,11561,01.203,551
2022-08-04T00:43:02,42.805,6.029,CST-1368DR,4630,5028,11565,01.201,551
2022-08-04T00:46:03,42.805,6.029,CST-1368DR,4630,5023,11553,01.205,551
2022-08-04T00:49:05,42.805,6.029,CST-1368DR,4630,5021,11549,01.207,551
2022-08-04T00:52:06,42.805,6.029,CST-1368DR,4630,5026,11560,01.203,551
2022-08-04T00:55:08,42.805,6.029,CST-1368DR,4630,5025,11559,01.203,551
2022-08-04T00:58:10,42.805,6.029,CST-1368DR,4630,5021,11549,01.207,551
2022-08-04T01:01:11,42.805,6.029,CST-1368DR,4630,5028,11565,01.201,551
2022-08-04T01:04:13,42.805,6.029,CST-1368DR,4630,5025,11559,01.203,551
2022-08-04T01:07:14,42.805,6.029,CST-1368DR,4630,5024,11555,01.205,551
2022-08-04T01:10:16,42.805,6.029,CST-1368DR,4630,5031,11573,01.198,551
2022-08-04T01:13:18,42.805,6.029,CST-1368DR,4630,5026,11561,01.203,551
2022-08-04T01:16:19,42.805,6.029,CST-1368DR,4630,5026,11561,01.203,551
2022-08-04T01:19:21,42.805,6.029,CST-1368DR,4630,5026,11560,01.203,551
2022-08-04T01:22:22,42.805,6.029,CST-1368DR,4629,5020,11550,01.206,551
2022-08-04T01:25:24,42.805,6.029,CST-1368DR,4630,5016,11538,01.211,551
2022-08-04T01:28:25,42.805,6.029,CST-1368DR,4630,5025,11558,01.204,551
2022-08-04T01:31:27,42.805,6.029,CST-1368DR,4630,5027,11563,01.202,551
2022-08-04T01:34:29,42.805,6.029,CST-1368DR,4630,5024,11557,01.204,551
2022-08-04T01:37:30,42.805,6.029,CST-1368DR,4630,5023,11555,01.205,551
2022-08-04T01:40:32,42.805,6.029,CST-1368DR,4630,5024,11555,01.205,551
2022-08-04T01:43:33,42.805,6.029,CST-1368DR,4630,5029,11567,01.201,551
2022-08-04T01:46:35,42.805,6.029,CST-1368DR,4630,5034,11578,01.197,551
2022-08-04T01:49:36,42.805,6.029,CST-1368DR,4630,5027,11563,01.202,551
2022-08-04T01:52:38,42.805,6.029,CST-1368DR,4630,5027,11562,01.202,551
2022-08-04T01:55:40,42.805,6.029,CST-1368DR,4630,5035,11582,01.195,551
2022-08-04T01:58:41,42.805,6.029,CST-1368DR,4630,5034,11578,01.197,551
2022-08-04T02:01:43,42.805,6.029,CST-1368DR,4629,4993,11486,01.229,551
2022-08-04T02:04:44,42.805,6.029,CST-1368DR,4629,4990,11480,01.231,551
2022-08-04T02:07:46,42.805,6.029,CST-1368DR,4629,4990,11480,01.231,551
2022-08-04T02:10:48,42.805,6.029,CST-1368DR,4629,4995,11491,01.227,551
2022-08-04T02:13:49,42.805,6.029,CST-1368DR,4629,4995,11492,01.227,551
2022-08-04T02:16:51,42.805,6.029,CST-1368DR,4629,5000,11503,01.223,551
2022-08-04T02:19:52,42.805,6.029,CST-1368DR,4629,4990,11480,01.231,551
2022-08-04T02:22:54,42.805,6.029,CST-1368DR,4629,4993,11487,01.228,551
2022-08-04T02:25:55,42.805,6.029,CST-1368DR,4629,4990,11480,01.231,551
2022-08-04T02:28:57,42.805,6.029,CST-1368DR,4629,4995,11492,01.227,551
2022-08-04T02:31:59,42.805,6.029,CST-1368DR,4629,5006,11518,01.218,551
2022-08-04T02:35:00,42.805,6.029,CST-1368DR,4629,4991,11484,01.229,551
2022-08-04T02:38:02,42.805,6.029,CST-1368DR,4629,4996,11494,01.226,551
2022-08-04T02:41:03,42.805,6.029,CST-1368DR,4629,4994,11490,01.227,551
2022-08-04T02:44:05,42.805,6.029,CST-1368DR,4629,4990,11480,01.231,551
2022-08-04T02:47:06,42.805,6.029,CST-1368DR,4629,4986,11471,01.234,551
2022-08-04T02:50:08,42.805,6.029,CST-1368DR,4629,4982,11463,01.237,551
2022-08-04T02:53:10,42.805,6.029,CST-1368DR,4629,4989,11479,01.231,551
2022-08-04T02:56:11,42.805,6.029,CST-1368DR,4629,4987,11474,01.233,551
2022-08-04T02:59:13,42.805,6.029,CST-1368DR,4629,4989,11479,01.231,551
2022-08-04T03:02:14,42.805,6.029,CST-1368DR,4629,4987,11474,01.233,551
2022-08-04T03:05:16,42.805,6.029,CST-1368DR,4629,4974,11444,01.243,551
2022-08-04T03:08:18,42.805,6.029,CST-1368DR,4629,4968,11431,01.248,551
2022-08-04T03:11:19,42.805,6.029,CST-1368DR,4629,4972,11438,01.245,551
2022-08-04T03:14:21,42.805,6.029,CST-1368DR,4629,4973,11442,01.244,551
2022-08-04T03:17:22,42.805,6.029,CST-1368DR,4629,4972,11438,01.245,551
2022-08-04T03:20:24,42.805,6.029,CST-1368DR,4629,4972,11440,01.245,551
2022-08-04T03:23:25,42.805,6.029,CST-1368DR,4629,4973,11440,01.245,551
2022-08-04T03:26:27,42.805,6.029,CST-1368DR,4629,4960,11412,01.255,551
2022-08-04T03:29:29,42.805,6.029,CST-1368DR,4629,5020,11549,01.207,551
2022-08-04T03:32:30,42.805,6.029,CST-1368DR,4630,5035,11582,01.195,551
2022-08-04T03:35:32,42.805,6.029,CST-1368DR,4629,5026,11562,01.202,551
2022-08-04T03:38:33,42.805,6.029,CST-1368DR,4630,5060,11639,01.176,551
2022-08-04T03:41:35,42.805,6.029,CST-1368DR,4630,5054,11626,01.180,551
2022-08-04T03:44:36,42.805,6.029,CST-1368DR,4630,5069,11660,01.169,551
2022-08-04T03:47:38,42.805,6.029,CST-1368DR,4630,5057,11631,01.178,551
2022-08-04T03:50:40,42.805,6.029,CST-1368DR,4630,5053,11623,01.181,551
2022-08-04T03:53:41,42.805,6.029,CST-1368DR,4630,5060,11639,01.176,551
2022-08-04T03:56:43,42.805,6.029,CST-1368DR,4630,5049,11615,01.184,551
2022-08-04T03:59:44,42.805,6.029,CST-1368DR,4630,5053,11623,01.181,551
2022-08-04T04:02:46,42.805,6.029,CST-1368DR,4630,5055,11628,01.180,551
2022-08-04T04:05:48,42.805,6.029,CST-1368DR,4630,5056,11630,01.179,551
2022-08-04T04:08:49,42.805,6.029,CST-1368DR,4630,5054,11625,01.181,551
2022-08-04T04:11:51,42.805,6.029,CST-1368DR,4630,5043,11599,01.190,551
2022-08-04T04:14:52,42.805,6.029,CST-1368DR,4629,5044,11604,01.188,551
2022-08-04T04:17:54,42.805,6.029,CST-1368DR,4630,5041,11595,01.191,551
2022-08-04T04:20:55,42.805,6.029,CST-1368DR,4630,5042,11597,01.190,551
2022-08-04T04:23:57,42.805,6.029,CST-1368DR,4630,5056,11630,01.179,551
2022-08-04T04:26:59,42.805,6.029,CST-1368DR,4630,5061,11642,01.175,551
2022-08-04T04:30:00,42.805,6.029,CST-1368DR,4630,5046,11606,01.187,551
2022-08-04T04:33:02,42.805,6.029,CST-1368DR,4630,5050,11617,01.183,551
2022-08-04T04:36:03,42.805,6.029,CST-1368DR,4630,5073,11669,01.165,551
2022-08-04T04:39:05,42.805,6.029,CST-1368DR,4630,5047,11610,01.186,551
2022-08-04T04:42:07,42.805,6.029,CST-1368DR,4630,5046,11606,01.187,551
2022-08-04T04:45:08,42.805,6.029,CST-1368DR,4630,5052,11620,01.182,551
2022-08-04T04:48:10,42.805,6.029,CST-1368DR,4630,5063,11646,01.173,551
2022-08-04T04:51:11,42.805,6.029,CST-1368DR,4630,5046,11606,01.187,551
2022-08-04T04:54:13,42.805,6.029,CST-1368DR,4629,5037,11589,01.193,551
2022-08-04T04:57:14,42.805,6.029,CST-1368DR,4629,5040,11596,01.191,551
2022-08-04T05:00:16,42.805,6.029,CST-1368DR,4629,5033,11580,01.196,551
2022-08-04T05:03:18,42.805,6.029,CST-1368DR,4630,5046,11606,01.187,551
2022-08-04T05:06:19,42.805,6.029,CST-1368DR,4630,5053,11623,01.181,551
2022-08-04T05:09:21,42.805,6.029,CST-1368DR,4630,5047,11609,01.186,551
2022-08-04T05:12:22,42.805,6.029,CST-1368DR,4629,5023,11557,01.204,551
2022-08-04T05:15:24,42.805,6.029,CST-1368DR,4629,5040,11595,01.191,551
2022-08-04T05:18:25,42.805,6.029,CST-1368DR,4629,5037,11588,01.193,551
2022-08-04T05:21:27,42.805,6.029,CST-1368DR,4630,5049,11613,01.185,551
2022-08-04T05:24:29,42.805,6.029,CST-1368DR,4630,5047,11609,01.186,551
2022-08-04T05:27:30,42.805,6.029,CST-1368DR,4630,5050,11616,01.184,551
2022-08-04T05:30:32,42.805,6.029,CST-1368DR,4630,5055,11628,01.180,551
2022-08-04T05:33:33,42.805,6.029,CST-1368DR,4629,5048,11614,01.184,551
2022-08-04T05:36:35,42.805,6.029,CST-1368DR,4629,5041,11599,01.190,551
2022-08-04T05:39:37,42.805,6.029,CST-1368DR,4629,5031,11575,01.198,551
2022-08-04T05:42:38,42.805,6.029,CST-1368DR,4629,5044,11605,01.187,551
2022-08-04T05:45:40,42.805,6.029,CST-1368DR,4629,5036,11587,01.194,551
2022-08-04T05:48:41,42.805,6.029,CST-1368DR,4629,5044,11604,01.188,551
2022-08-04T05:51:43,42.805,6.029,CST-1368DR,4629,5029,11570,01.200,551
2022-08-04T05:54:44,42.805,6.029,CST-1368DR,4629,5046,11608,01.186,551
2022-08-04T05:57:46,42.805,6.029,CST-1368DR,4629,5048,11614,01.184,551
2022-08-04T06:00:48,42.805,6.029,CST-1368DR,4629,5037,11588,01.193,551
2022-08-04T06:03:49,42.805,6.029,CST-1368DR,4630,5032,11574,01.198,551
2022-08-04T06:06:51,42.805,6.029,CST-1368DR,4629,5035,11585,01.194,551
2022-08-04T06:09:52,42.805,6.029,CST-1368DR,4629,5026,11563,01.202,551
2022-08-04T06:12:54,42.805,6.029,CST-1368DR,4629,5034,11581,01.196,551
2022-08-04T06:15:55,42.805,6.029,CST-1368DR,4629,5037,11588,01.193,551
2022-08-04T06:18:57,42.805,6.029,CST-1368DR,4629,5031,11574,01.198,551
2022-08-04T06:21:59,42.805,6.029,CST-1368DR,4629,5035,11584,01.195,551
2022-08-04T06:25:00,42.805,6.029,CST-1368DR,4629,5033,11579,01.196,551
2022-08-04T06:28:02,42.805,6.029,CST-1368DR,4629,5038,11591,01.192,551
2022-08-04T06:31:03,42.805,6.029,CST-1368DR,4629,5036,11585,01.194,551
2022-08-04T06:34:05,42.805,6.029,CST-1368DR,4629,5034,11581,01.196,551
2022-08-04T06:37:07,42.805,6.029,CST-1368DR,4629,5047,11611,01.185,551
2022-08-04T06:40:08,42.805,6.029,CST-1368DR,4629,5047,11612,01.185,551
2022-08-04T06:43:10,42.805,6.029,CST-1368DR,4629,5042,11600,01.189,551
2022-08-04T06:46:11,42.805,6.029,CST-1368DR,4629,5048,11614,01.184,551
2022-08-04T06:49:13,42.805,6.029,CST-1368DR,4629,5046,11610,01.186,551
2022-08-04T06:52:14,42.805,6.029,CST-1368DR,4629,5038,11591,01.192,551
2022-08-04T06:55:16,42.805,6.029,CST-1368DR,4629,5030,11572,01.199,551
2022-08-04T06:58:18,42.805,6.029,CST-1368DR,4629,5033,11580,01.196,551
2022-08-04T07:01:19,42.805,6.029,CST-1368DR,4629,5052,11624,01.181,551
2022-08-04T07:04:21,42.805,6.029,CST-1368DR,4629,5055,11629,01.179,551
2022-08-04T07:07:22,42.805,6.029,CST-1368DR,4629,5044,11606,01.187,551
2022-08-04T07:10:24,42.805,6.029,CST-1368DR,4630,5068,11658,01.169,551
2022-08-04T07:13:25,42.805,6.029,CST-1368DR,4630,5067,11655,01.170,551
2022-08-04T07:16:27,42.805,6.029,CST-1368DR,4630,5069,11660,01.169,551
2022-08-04T07:19:29,42.805,6.029,CST-1368DR,4629,5058,11638,01.176,551
2022-08-04T07:22:30,42.805,6.029,CST-1368DR,4629,5057,11635,01.177,551
2022-08-04T07:25:32,42.805,6.029,CST-1368DR,4629,5059,11640,01.175,551
2022-08-04T07:28:33,42.805,6.029,CST-1368DR,4629,5054,11628,01.180,551
2022-08-04T07:31:35,42.805,6.029,CST-1368DR,4629,5069,11662,01.168,551
2022-08-04T07:34:37,42.805,6.029,CST-1368DR,4629,5057,11634,01.177,551
2022-08-04T07:37:38,42.805,6.029,CST-1368DR,4629,5061,11643,01.174,551
2022-08-04T07:40:40,42.805,6.029,CST-1368DR,4629,5066,11655,01.170,551
2022-08-04T07:43:41,42.805,6.029,CST-1368DR,4629,5062,11645,01.174,551
2022-08-04T07:46:43,42.805,6.029,CST-1368DR,4630,5073,11668,01.166,551
2022-08-04T07:49:44,42.805,6.029,CST-1368DR,4629,5064,11650,01.172,551
2022-08-04T07:52:46,42.805,6.029,CST-1368DR,4629,5058,11637,01.176,551
2022-08-04T07:55:48,42.805,6.029,CST-1368DR,4629,5046,11610,01.186,551
2022-08-04T07:58:49,42.805,6.029,CST-1368DR,4629,5048,11614,01.184,551
2022-08-04T08:01:51,42.805,6.029,CST-1368DR,4629,5048,11614,01.184,551
2022-08-04T08:04:52,42.805,6.029,CST-1368DR,4629,5049,11616,01.184,551
2022-08-04T08:07:54,42.805,6.029,CST-1368DR,4629,5048,11613,01.185,551
2022-08-04T08:10:56,42.805,6.029,CST-1368DR,4629,5064,11650,01.172,551
2022-08-04T08:13:57,42.805,6.029,CST-1368DR,4629,5060,11642,01.175,551
2022-08-04T08:16:59,42.805,6.029,CST-1368DR,4629,5052,11623,01.181,551
2022-08-04T08:20:00,42.805,6.029,CST-1368DR,4629,5044,11606,01.187,551
2022-08-04T08:23:02,42.805,6.029,CST-1368DR,4629,5053,11625,01.181,551
2022-08-04T08:26:03,42.805,6.029,CST-1368DR,4629,5048,11614,01.184,551
2022-08-04T08:29:05,42.805,6.029,CST-1368DR,4629,5054,11627,01.180,551
2022-08-04T08:32:07,42.805,6.029,CST-1368DR,4629,5061,11643,01.174,551
2022-08-04T08:35:08,42.805,6.029,CST-1368DR,4629,5050,11619,01.183,551
2022-08-04T08:38:10,42.805,6.029,CST-1368DR,4629,5061,11644,01.174,551
2022-08-04T08:41:11,42.805,6.029,CST-1368DR,4629,5059,11639,01.176,551
2022-08-04T08:44:13,42.805,6.029,CST-1368DR,4629,5067,11657,01.170,551
2022-08-04T08:47:14,42.805,6.029,CST-1368DR,4629,5080,11688,01.159,551
2022-08-04T08:50:16,42.805,6.029,CST-1368DR,4629,5070,11665,01.167,551
2022-08-04T08:53:18,42.805,6.029,CST-1368DR,4629,5055,11629,01.179,551
2022-08-04T08:56:19,42.805,6.029,CST-1368DR,4629,5064,11652,01.171,551
2022-08-04T08:59:21,42.805,6.029,CST-1368DR,4629,5054,11627,01.180,551
2022-08-04T09:02:22,42.805,6.029,CST-1368DR,4629,5063,11649,01.172,551
2022-08-04T09:05:24,42.805,6.029,CST-1368DR,4629,5064,11650,01.172,551
2022-08-04T09:08:26,42.805,6.029,CST-1368DR,4629,5059,11639,01.176,551
2022-08-04T09:11:27,42.805,6.029,CST-1368DR,4629,5051,11620,01.182,551
2022-08-04T09:14:29,42.805,6.029,CST-1368DR,4629,5058,11636,01.177,551
2022-08-04T09:17:30,42.805,6.029,CST-1368DR,4629,5060,11642,01.175,551
2022-08-04T09:20:32,42.805,6.029,CST-1368DR,4629,5055,11630,01.179,551
2022-08-04T09:23:33,42.805,6.029,CST-1368DR,4629,5052,11622,01.182,551
2022-08-04T09:26:35,42.805,6.029,CST-1368DR,4629,5055,11631,01.178,551
2022-08-04T09:29:37,42.805,6.029,CST-1368DR,4629,5067,11658,01.169,551
2022-08-04T09:32:38,42.805,6.029,CST-1368DR,4629,5058,11638,01.176,551
2022-08-04T09:35:40,42.805,6.029,CST-1368DR,4629,5061,11643,01.174,551
2022-08-04T09:38:41,42.805,6.029,CST-1368DR,4629,5066,11655,01.170,551
2022-08-04T09:41:43,42.805,6.029,CST-1368DR,4629,5062,11647,01.173,551
2022-08-04T09:44:44,42.805,6.029,CST-1368DR,4629,5066,11656,01.170,551
2022-08-04T09:47:46,42.805,6.029,CST-1368DR,4629,5076,11678,01.162,551
2022-08-04T09:50:48,42.805,6.029,CST-1368DR,4629,5075,11676,01.163,551
2022-08-04T09:53:49,42.805,6.029,CST-1368DR,4629,5067,11657,01.170,551
2022-08-04T09:56:51,42.805,6.029,CST-1368DR,4629,5063,11648,01.173,551
2022-08-04T09:59:52,42.805,6.029,CST-1368DR,4629,5059,11640,01.175,551
2022-08-04T10:02:54,42.805,6.029,CST-1368DR,4629,5059,11640,01.175,551
2022-08-04T10:05:56,42.805,6.029,CST-1368DR,4629,5051,11620,01.182,551
2022-08-04T10:08:57,42.805,6.029,CST-1368DR,4629,5063,11649,01.172,551
2022-08-04T10:11:59,42.805,6.029,CST-1368DR,4629,5049,11616,01.184,551
2022-08-04T10:15:00,42.805,6.029,CST-1368DR,4629,5073,11671,01.165,551
2022-08-04T10:18:02,42.805,6.029,CST-1368DR,4629,5066,11655,01.170,551
2022-08-04T10:21:03,42.805,6.029,CST-1368DR,4629,5054,11628,01.180,551
2022-08-04T10:24:05,42.805,6.029,CST-1368DR,4629,5060,11641,01.175,551
2022-08-04T10:27:07,42.805,6.029,CST-1368DR,4629,5060,11641,01.175,551
2022-08-04T10:30:08,42.805,6.029,CST-1368DR,4629,5055,11629,01.179,551
2022-08-04T10:33:10,42.805,6.029,CST-1368DR,4629,5048,11613,01.185,551
2022-08-04T10:36:11,42.805,6.029,CST-1368DR,4629,5058,11636,01.177,551
2022-08-04T10:39:13,42.805,6.029,CST-1368DR,4629,5054,11627,01.180,551
2022-08-04T10:42:14,42.805,6.029,CST-1368DR,4629,5069,11663,01.167,551
2022-08-04T10:45:16,42.805,6.029,CST-1368DR,4629,5058,11637,01.176,551
2022-08-04T10:48:18,42.805,6.029,CST-1368DR,4629,5055,11631,01.178,551
2022-08-04T10:51:19,42.805,6.029,CST-1368DR,4629,5057,11635,01.177,551
2022-08-04T10:54:21,42.805,6.029,CST-1368DR,4629,5057,11635,01.177,551
2022-08-04T10:57:22,42.805,6.029,CST-1368DR,4629,5056,11633,01.178,551
2022-08-04T11:00:24,42.805,6.029,CST-1368DR,4629,5063,11649,01.172,551
2022-08-04T11:03:26,42.805,6.029,CST-1368DR,4629,5067,11657,01.170,551
2022-08-04T11:06:27,42.805,6.029,CST-1368DR,4629,5059,11640,01.175,551
2022-08-04T11:09:29,42.805,6.029,CST-1368DR,4629,5055,11629,01.179,551
2022-08-04T11:12:30,42.805,6.029,CST-1368DR,4629,5054,11627,01.180,551
2022-08-04T11:15:32,42.805,6.029,CST-1368DR,4629,5049,11616,01.184,551
2022-08-04T11:18:33,42.805,6.029,CST-1368DR,4629,5053,11625,01.181,551
2022-08-04T11:21:35,42.805,6.029,CST-1368DR,4629,5057,11635,01.177,551
2022-08-04T11:24:37,42.805,6.029,CST-1368DR,4629,5051,11621,01.182,551
2022-08-04T11:27:38,42.805,6.029,CST-1368DR,4629,5057,11635,01.177,551
2022-08-04T11:30:40,42.805,6.029,CST-1368DR,4629,5057,11635,01.177,551
2022-08-04T11:33:41,42.805,6.029,CST-1368DR,4629,5059,11640,01.175,551
2022-08-04T11:36:43,42.805,6.029,CST-1368DR,4629,5066,11656,01.170,551
2022-08-04T11:39:44,42.805,6.029,CST-1368DR,4629,5067,11658,01.169,551
2022-08-04T11:42:46,42.805,6.029,CST-1368DR,4629,5066,11656,01.170,551
2022-08-04T11:45:48,42.805,6.029,CST-1368DR,4629,5064,11650,01.172,551
2022-08-04T11:48:49,42.805,6.029,CST-1368DR,4629,5055,11629,01.179,551
2022-08-04T11:51:51,42.805,6.029,CST-1368DR,4629,5050,11618,01.183,551
2022-08-04T11:54:52,42.805,6.029,CST-1368DR,4629,5056,11633,01.178,551
2022-08-04T11:57:54,42.805,6.029,CST-1368DR,4629,5057,11634,01.177,551
2022-08-04T12:00:56,42.805,6.029,CST-1368DR,4629,5061,11643,01.174,551
2022-08-04T12:03:57,42.805,6.029,CST-1368DR,4629,5049,11617,01.183,551
2022-08-04T12:06:59,42.805,6.029,CST-1368DR,4629,5052,11623,01.181,551
2022-08-04T12:10:00,42.805,6.029,CST-1368DR,4629,5063,11648,01.173,551
2022-08-04T12:13:02,42.805,6.029,CST-1368DR,4629,5063,11649,01.172,551
2022-08-04T12:16:03,42.805,6.029,CST-1368DR,4629,5055,11630,01.179,551
2022-08-04T12:19:05,42.805,6.029,CST-1368DR,4629,5057,11635,01.177,551
2022-08-04T12:22:07,42.805,6.029,CST-1368DR,4629,5050,11619,01.183,551
2022-08-04T12:25:08,42.805,6.029,CST-1368DR,4629,5053,11625,01.181,551
2022-08-04T12:28:10,42.805,6.029,CST-1368DR,4629,5055,11629,01.179,551
2022-08-04T12:31:11,42.805,6.029,CST-1368DR,4629,5036,11585,01.194,551
2022-08-04T12:34:13,42.805,6.029,CST-1368DR,4629,5054,11627,01.180,551
2022-08-04T12:37:14,42.805,6.029,CST-1368DR,4629,5058,11636,01.177,551
2022-08-04T12:40:16,42.805,6.029,CST-1368DR,4629,5050,11618,01.183,551
2022-08-04T12:43:18,42.805,6.029,CST-1368DR,4629,5051,11620,01.182,551
2022-08-04T12:46:19,42.805,6.029,CST-1368DR,4629,5057,11634,01.177,551
2022-08-04T12:49:21,42.805,6.029,CST-1368DR,4629,5053,11625,01.181,551
2022-08-04T12:52:22,42.805,6.029,CST-1368DR,4629,5063,11649,01.172,551
2022-08-04T12:55:24,42.805,6.029,CST-1368DR,4629,5047,11612,01.185,551
2022-08-04T12:58:26,42.805,6.029,CST-1368DR,4629,5043,11603,01.188,551
2022-08-04T13:01:27,42.805,6.029,CST-1368DR,4629,5067,11657,01.170,550
2022-08-04T13:04:29,42.805,6.029,CST-1368DR,4629,5065,11653,01.171,551
2022-08-04T13:07:30,42.805,6.029,CST-1368DR,4629,5054,11627,01.180,551
2022-08-04T13:10:32,42.805,6.029,CST-1368DR,4629,5048,11614,01.184,551
2022-08-04T13:13:33,42.805,6.029,CST-1368DR,4629,5047,11612,01.185,551
2022-08-04T13:16:35,42.805,6.029,CST-1368DR,4629,5048,11613,01.185,551
2022-08-04T13:19:37,42.805,6.029,CST-1368DR,4629,5051,11621,01.182,551
2022-08-04T13:22:38,42.805,6.029,CST-1368DR,4629,5063,11648,01.173,551
2022-08-04T13:25:40,42.805,6.029,CST-1368DR,4629,5060,11642,01.175,551
2022-08-04T13:28:41,42.805,6.029,CST-1368DR,4629,5057,11634,01.177,551
2022-08-04T13:31:43,42.805,6.029,CST-1368DR,4629,5068,11659,01.169,551
2022-08-04T13:34:44,42.805,6.029,CST-1368DR,4629,5049,11616,01.184,551
2022-08-04T13:37:46,42.805,6.029,CST-1368DR,4629,5048,11614,01.184,551
2022-08-04T13:40:48,42.805,6.029,CST-1368DR,4629,5057,11634,01.177,551
2022-08-04T13:43:49,42.805,6.029,CST-1368DR,4629,5056,11633,01.178,551
2022-08-04T13:46:51,42.805,6.029,CST-1368DR,4629,5059,11640,01.175,551
2022-08-04T13:49:52,42.805,6.029,CST-1368DR,4629,5068,11661,01.168,551
2022-08-04T13:52:54,42.805,6.029,CST-1368DR,4629,5067,11658,01.169,551
2022-08-04T13:55:56,42.805,6.029,CST-1368DR,4629,5070,11665,01.167,551
2022-08-04T13:58:57,42.805,6.029,CST-1368DR,4629,5067,11658,01.169,551
2022-08-04T14:01:59,42.805,6.029,CST-1368DR,4629,5063,11649,01.172,551
2022-08-04T14:05:00,42.805,6.029,CST-1368DR,4629,5061,11645,01.174,551
2022-08-04T14:08:02,42.805,6.029,CST-1368DR,4629,5067,11658,01.169,551
2022-08-04T14:11:03,42.805,6.029,CST-1368DR,4629,5053,11625,01.181,551
2022-08-04T14:14:05,42.805,6.029,CST-1368DR,4629,5055,11629,01.179,551
2022-08-04T14:17:07,42.805,6.029,CST-1368DR,4629,5059,11640,01.175,551
2022-08-04T14:20:08,42.805,6.029,CST-1368DR,4629,5055,11629,01.179,551
2022-08-04T14:23:10,42.805,6.029,CST-1368DR,4629,5047,11611,01.185,551
2022-08-04T14:26:11,42.805,6.029,CST-1368DR,4629,5053,11626,01.180,551
2022-08-04T14:29:13,42.805,6.029,CST-1368DR,4629,5061,11644,01.174,551
2022-08-04T14:32:14,42.805,6.029,CST-1368DR,4629,5049,11617,01.183,551
2022-08-04T14:35:16,42.805,6.029,CST-1368DR,4629,5049,11615,01.184,551
2022-08-04T14:38:18,42.805,6.029,CST-1368DR,4629,5046,11610,01.186,551
2022-08-04T14:41:19,42.805,6.029,CST-1368DR,4629,5049,11616,01.184,551
2022-08-04T14:44:21,42.805,6.029,CST-1368DR,4629,5047,11611,01.185,551
2022-08-04T14:47:22,42.805,6.029,CST-1368DR,4629,5060,11641,01.175,551
2022-08-04T14:50:24,42.805,6.029,CST-1368DR,4629,5068,11661,01.168,551
2022-08-04T14:53:26,42.805,6.029,CST-1368DR,4629,5061,11643,01.174,551
2022-08-04T14:56:27,42.805,6.029,CST-1368DR,4629,5044,11606,01.187,551
2022-08-04T14:59:29,42.805,6.029,CST-1368DR,4629,5042,11600,01.189,551
2022-08-04T15:02:30,42.805,6.029,CST-1368DR,4629,5048,11614,01.184,551
2022-08-04T15:05:32,42.805,6.029,CST-1368DR,4629,5056,11631,01.178,551
2022-08-04T15:08:33,42.805,6.029,CST-1368DR,4629,5069,11662,01.168,551
2022-08-04T15:11:35,42.805,6.029,CST-1368DR,4629,5060,11641,01.175,551
2022-08-04T15:14:37,42.805,6.029,CST-1368DR,4629,5070,11664,01.167,551
2022-08-04T15:17:38,42.805,6.029,CST-1368DR,4629,5055,11629,01.179,551
2022-08-04T15:20:40,42.805,6.029,CST-1368DR,4629,5048,11614,01.184,551
2022-08-04T15:23:41,42.805,6.029,CST-1368DR,4629,5053,11626,01.180,551
2022-08-04T15:26:43,42.805,6.029,CST-1368DR,4629,5067,11658,01.169,551
2022-08-04T15:29:44,42.805,6.029,CST-1368DR,4629,5056,11633,01.178,551
2022-08-04T15:32:46,42.805,6.029,CST-1368DR,4629,5049,11617,01.183,551
2022-08-04T15:35:48,42.805,6.029,CST-1368DR,4629,5053,11626,01.180,551
2022-08-04T15:38:49,42.805,6.029,CST-1368DR,4629,5051,11622,01.182,551
2022-08-04T15:41:51,42.805,6.029,CST-1368DR,4629,5070,11665,01.167,551
2022-08-04T15:44:52,42.805,6.029,CST-1368DR,4629,5072,11668,01.166,551
2022-08-04T15:47:54,42.805,6.029,CST-1368DR,4629,5063,11648,01.173,551
2022-08-04T15:50:56,42.805,6.029,CST-1368DR,4629,5070,11665,01.167,551
2022-08-04T15:53:57,42.805,6.029,CST-1368DR,4629,5065,11653,01.171,551
2022-08-04T15:56:59,42.805,6.029,CST-1368DR,4629,5061,11645,01.174,551
2022-08-04T16:00:00,42.805,6.029,CST-1368DR,4629,5068,11659,01.169,551
2022-08-04T16:03:02,42.805,6.029,CST-1368DR,4629,5060,11641,01.175,551
2022-08-04T16:06:03,42.805,6.029,CST-1368DR,4629,5062,11647,01.173,551
2022-08-04T16:09:05,42.805,6.029,CST-1368DR,4629,5062,11646,01.173,551
2022-08-04T16:12:07,42.805,6.029,CST-1368DR,4629,5081,11690,01.158,551
2022-08-04T16:15:08,42.805,6.029,CST-1368DR,4629,5074,11673,01.164,551
2022-08-04T16:18:10,42.805,6.029,CST-1368DR,4629,5077,11681,01.161,551
2022-08-04T16:21:11,42.805,6.029,CST-1368DR,4629,5077,11680,01.162,551
2022-08-04T16:24:13,42.805,6.029,CST-1368DR,4629,5072,11669,01.165,551
2022-08-04T16:27:15,42.805,6.029,CST-1368DR,4629,5064,11650,01.172,551
2022-08-04T16:30:16,42.805,6.029,CST-1368DR,4629,5073,11672,01.164,551
2022-08-04T16:33:18,42.805,6.029,CST-1368DR,4629,5080,11688,01.159,551
2022-08-04T16:36:19,42.805,6.029,CST-1368DR,4629,5064,11650,01.172,551